Regional Weather Roundup
Issued by NWS Charleston, SC

Current Version | Previous Version | Text Only | Print | Product List | Glossary Off
Versions: 1 2 3 4 5 6 7 8 9 10 11 12 13 14 15 16 17 18 19 20 21 22 23 24 25 26 27 28 29 30 31 32 33 34 35 36 37 38 39 40 41 42 43 44 45 46 47 48 49 50
224 ASUS42 KCHS 271528 RWRCHS REGIONAL WEATHER ROUNDUP NATIONAL WEATHER SERVICE CHARLESTON SC 1100 AM EDT SAT AUG 27 2016 NOTE: "FAIR" INDICATES FEW OR NO CLOUDS BELOW 12,000 FEET WITH NO SIGNIFICANT WEATHER AND/OR OBSTRUCTIONS TO VISIBILITY. NOT ALL STATIONS ARE QUALITY CONTROLLED. USE DATA WITH CAUTION... ESPECIALLY DEWPOINT OBSERVATIONS. SCZ027-030-031-034>040-042>050-271600- ...SOUTHEAST SOUTH CAROLINA... CITY SKY/WX TMP DP RH WIND PRES REMARKS N CHARLESTON MOSUNNY 87 70 56 E13 30.09S HX 92 WATERFRONT PRK N/A 83 74 74 NE10 30.08R HX 90 MOUNT PLEASANT FAIR 86 73 66 E6 30.10S HX 93 JOHNS ISLAND FAIR 86 73 66 NE16 30.10R HX 93 PINOPOLIS N/A 82 75 78 E7 30.04S MONCKS CORNER FAIR 84 72 65 E8 30.10S SUMMERVILLE FAIR 86 72 62 CALM 30.11S HX 92 BEAUFORT MCAS SUNNY 86 71 60 E9 30.09R HX 91 BEAUFORT ARPT FAIR 84 70 61 E14G20 30.09R HILTON HEAD IS MOSUNNY 88 73 62 NE9G16 30.09R HX 96 WALTERBORO SUNNY 88 70 55 E9 30.10F HX 92 ALLENDALE FAIR 88 70 55 VRB6G13 30.09S HX 92 ...SOUTHERN MIDLANDS AND PEE DEE... CITY SKY/WX TMP DP RH WIND PRES REMARKS GEORGETOWN FAIR 86 72 62 E9 30.12R HX 92 KINGSTREE FAIR 88 70 55 E5 30.11S HX 92 ORANGEBURG SUNNY 87 71 58 E8 30.11S HX 93 BARNWELL NOT AVBL AIKEN FAIR 86 70 58 E7 30.15F HX 90 MANNING FAIR 86 72 62 NE7 30.10F HX 92 COLUMBIA MOSUNNY 89 70 53 E7 30.11S HX 94 SUMTER SUNNY 87 72 60 E5 30.10S HX 93 FLORENCE SUNNY 89 72 56 SE8 30.12S HX 96 MYRTLE BEACH SUNNY 88 68 51 E9 30.13R HX 91 N MYRTLE BEACH SUNNY 86 73 65 SE7 30.11S HX 93 $$ GAZ063-065-086>088-099>101-113>116-118-119-134>141-150-271600- ...SOUTHEAST GEORGIA... CITY SKY/WX TMP DP RH WIND PRES REMARKS SAVANNAH ARPT MOSUNNY 87 70 56 NE8 30.08S HX 92 HUNTER AAF MOSUNNY 87 75 68 E16 30.05S HX 96 FORT STEWART MOSUNNY 85 72 65 E6 30.04F HX 91 STATESBORO SUNNY 86 71 61 E10 30.09S HX 92 SYLVANIA NOT AVBL CLAXTON FAIR 86 72 62 NE5 30.08S HX 92 ...CSRA...CENTRAL AND FAR SOUTHEAST GEORGIA... CITY SKY/WX TMP DP RH WIND PRES REMARKS THOMSON SUNNY 88 75 64 MISG 30.16S HX 98 AUGUSTA-BUSH SUNNY 87 71 58 E7 30.10S HX 93 AUGUSTA-DANIEL SUNNY 88 70 55 E9 30.12S HX 93 SWAINSBORO FAIR 88 66 48 E13G18 30.09F HX 90 VIDALIA SUNNY 86 73 66 E10 30.09S HX 93 EASTMAN FAIR 87 56 35 E6 30.11S HAZLEHURST FAIR 87 73 62 CALM 30.07S HX 94 ALMA MOSUNNY 84 71 65 NE5 30.07S WAYCROSS N/A 88 77 71 NE9 30.06S HX 100 JESUP FAIR 86 77 74 E10 30.06S HX 97 BAXLEY FAIR 88 75 66 E6 30.07S HX 97 BRUNSWICK MOSUNNY 88 75 66 E16G22 30.06S HX 97 SAINT SIMONS NOT AVBL $$ SCZ027-028-034-036>038-045-046-048>050-GAZ119-141-271600- ...LAKE AND SUPPLEMENTAL COASTAL OBSERVATIONS... STATION/POSITION TIME TEMP WIND PRES WAVE SWELL AIR SEA DIR/SP/G HT/PER HT/PER/DIR (UTC) (F) (DEG/KT/KT) (MB) (FT/S) (FT/S/D) WINYAH BAY 1400 82 50/ 8 1019.0R LAKE MURRAY 1500 84 220/ 2/ 3 1019.3S ACE BASIN NERRS 1400 84 50/ 4 1019.0S FORT PULASKI 1500 83 85 70/ 13/ 15 1019.0R SAPELO ISLAND 1500 87 70/ 13 1018.0S $$ ANZ835-935-AMZ111-154-330-350-352-354-370-450-454-472-271600- ...C-MAN AND BUOY OBSERVATIONS... STATION/POSITION TIME TEMP WIND PRES WAVE SWELL AIR SEA DIR/SP/G HT/PER HT/PER/DIR (UTC) (F) (DEG/KT/KT) (MB) (FT/S) (FT/S/D) BUOY 41004 1450 83 83 60/ 14/ 16 1018.3R 5/10 3/140/10 BUOY 41008 1450 83 85 70/ 17/ 21 1017.3S 5/ 6 2/120/11 FOLLY BEACH CMAN 1500 83 60/ 15/ 17 1019.4R CAPERS NEARSHORE 1408 82 84 70/ 14/ 17 1018.8R FRIPP NEARSHORE 1408 83 86 60/ 12/ 17 1018.1R STATION/POSITION TIME TEMP WIND PRES WAVE SWELL AIR SEA DIR/SP/G HT/PER HT/PER/DIR (UTC) (F) (DEG/KT/KT) (MB) (FT/S) (FT/S/D) 5E ST. MARYS GA 1501 85 N/A 5/11 2/130/11 FRYING PAN BUOY 1500 83 84 60/ 10/ 14 1019.0S BUOY 41025 1450 82 85 360/ 6/ 6 1019.7F 2/10 2/130/10 CAPE LOOKOUT NC 1500 83 50/ 5/ 5 1019.4F BUOY 41002 1450 83 84 50/ 14/ 16 1018.1R 4/ 8 3/110/ 8 BUOY 41010 NOT AVBL ST AUGUSTINE FL 1500 81 83 30/ 15/ 16 1017.5R $$

USA.gov is the U.S. government's official web portal to all federal, state and local government web resources and services.